EHI
12 11 10 8 8 8 7 3 3 4 4 6 9 9 7 5 5 5 6 6 4 2 1 0 0 0 0 1 2 2 2 2 2 3 4 5 6 7
12 11 10 9 9 8 8 7 7 7 6 6 8 8 6 5 5 6 7 7 5 3 1 1 0 0 0 0 1 1 1 1 1 1 2 3 3 4
11 10 10 10 10 10 10 11 11 11 9 7 7 7 8 8 8 7 7 7 5 4 3 2 1 1 0 0 0 0 0 0 0 0 0 0 0 1
8 9 10 10 11 11 12 12 13 13 12 9 7 8 10 12 12 9 7 6 6 4 3 3 2 1 0 0 0 0 0 0 0 0 0 0 0 0
8 10 11 11 10 11 12 11 12 13 13 10 8 9 10 13 14 12 10 8 6 3 2 3 3 2 1 0 0 0 0 0 0 0 0 0 0 0
9 10 11 10 10 10 10 11 12 14 14 11 8 7 9 11 14 14 12 11 7 3 3 4 4 3 2 1 0 0 0 0 0 0 0 0 0 0
9 10 10 9 9 8 7 8 9 12 14 12 9 7 8 10 11 11 11 9 6 4 5 6 7 6 5 3 1 0 0 0 0 0 0 0 0 0
8 8 8 8 7 5 4 3 4 6 10 11 10 9 9 10 9 8 8 7 5 5 5 6 7 8 7 6 3 1 0 0 0 0 0 0 0 0
7 7 7 7 8 8 6 4 3 3 5 8 9 8 9 10 9 8 7 6 4 4 3 3 4 5 7 6 3 1 0 0 0 0 0 0 0 0
7 7 7 8 9 11 11 9 6 4 3 4 5 6 6 7 7 7 6 4 3 2 2 1 1 2 3 4 2 0 0 0 0 0 0 0 0 0
9 8 8 8 8 9 9 8 6 4 2 1 1 2 2 2 3 3 3 2 1 1 1 0 0 0 1 2 1 0 0 0 0 0 0 0 0 0
10 10 8 6 3 3 4 4 3 2 1 0 0 0 0 0 0 1 1 1 0 0 0 0 0 0 0 0 0 0 0 0 0 0 0 0 0 0
11 11 8 3 1 0 1 2 1 1 0 0 0 0 0 0 0 0 1 1 0 0 0 0 0 0 0 0 0 0 0 0 0 0 0 0 0 0
11 9 5 1 0 0 0 0 0 0 0 0 0 0 0 0 0 0 1 1 0 0 0 0 0 0 0 0 0 0 0 0 0 0 0 0 0 0
8 5 2 0 0 0 0 0 0 0 0 0 0 0 0 0 0 0 1 1 0 0 0 0 0 0 0 0 0 0 0 0 1 1 1 0 0 0
3 2 0 0 0 0 0 0 0 0 0 0 0 0 0 0 0 0 0 0 0 0 0 0 0 0 0 0 0 0 0 1 2 2 2 1 0 0
1 0 0 0 0 0 0 0 0 0 0 0 0 0 0 0 0 0 0 0 0 0 0 0 0 0 0 1 0 0 1 2 3 3 3 2 1 0
0 0 0 0 0 0 0 0 0 0 0 0 0 0 0 0 0 0 0 0 0 0 0 0 0 0 0 0 0 0 1 2 3 3 3 3 1 1
0 0 0 0 0 0 0 0 0 0 0 0 0 0 0 0 0 0 0 0 0 0 0 0 0 0 0 0 0 0 1 2 3 3 2 1 1 0
0 0 0 0 0 0 0 0 0 0 0 0 0 0 0 0 0 0 0 0 0 0 0 0 0 0 0 0 0 0 0 1 2 2 1 0 0 0
0 0 0 0 0 0 0 0 0 0 0 0 0 0 0 0 0 0 0 0 0 0 0 0 0 0 0 0 0 0 0 0 1 1 1 0 0 0
0 0 0 0 0 0 0 0 0 0 0 0 0 0 0 0 0 0 0 0 0 0 0 0 0 0 0 0 0 0 0 0 0 0 0 0 0 0
0 0 0 0 1 1 1 0 0 0 0 0 0 0 0 0 0 0 0 0 0 0 0 0 0 0 0 0 0 0 0 0 0 0 0 0 0 0
Wind_Speed
3 3 4 3 3 3 4 5 5 4 3 2 2 1 2 1 1 2 2 3 3 2 2 2 3 3 3 3 4 5 5 6 6 6 6 7 8 9
3 3 4 3 3 3 4 4 4 5 4 2 2 1 2 2 1 2 2 3 3 3 3 3 3 4 4 4 4 4 5 5 6 6 6 6 6 6
3 3 3 4 4 3 3 4 4 4 4 3 2 1 2 3 2 3 3 3 2 4 3 3 3 3 3 4 4 4 4 4 5 6 6 5 5 5
3 3 4 3 4 4 3 4 4 3 5 4 3 2 3 3 3 4 3 2 2 4 4 3 2 3 4 4 4 4 4 4 4 5 5 5 5 5
4 4 4 4 4 4 5 4 4 3 4 4 4 2 2 2 2 3 2 2 3 4 6 5 4 3 3 4 4 4 5 5 4 5 5 5 5 5
4 4 4 4 4 5 4 4 4 4 4 4 4 3 2 1 2 2 2 2 3 2 1 3 5 5 3 2 3 3 4 5 5 5 5 5 5 5
4 4 3 3 4 4 5 4 4 4 4 4 3 2 2 1 2 2 2 2 2 2 2 2 2 2 3 4 3 2 3 4 5 5 5 5 5 6
4 4 4 3 2 3 4 5 5 5 5 4 3 3 3 3 2 3 2 2 2 1 3 2 1 1 1 1 3 2 2 3 3 4 5 5 6 6
4 4 4 2 3 4 3 4 4 5 5 6 5 4 3 2 3 4 3 3 3 2 3 3 2 2 1 2 5 4 3 3 4 4 4 4 4 5
4 5 5 4 3 4 4 4 4 3 4 4 3 3 3 2 3 4 3 3 3 2 2 3 2 2 1 1 5 4 4 4 4 4 4 4 4 4
4 3 4 4 2 3 4 4 3 3 1 0 1 1 1 1 2 2 2 3 2 2 1 3 2 2 2 2 4 6 5 5 5 5 5 5 4 5
3 3 1 2 2 2 3 3 3 3 2 1 0 1 2 2 3 3 3 3 2 2 1 3 2 2 3 2 2 3 4 5 6 7 6 6 4 4
3 2 0 2 1 2 4 3 3 3 3 2 2 2 2 2 2 2 2 3 3 2 1 2 3 3 3 2 2 2 2 2 3 4 6 7 6 5
3 2 1 2 1 2 2 1 2 4 3 2 2 2 1 1 1 1 1 2 2 3 3 3 3 3 4 4 3 2 2 2 3 3 3 5 7 8
2 2 1 2 3 3 3 3 3 3 2 2 1 2 2 2 1 1 1 1 2 2 2 3 4 4 5 4 3 3 3 3 3 3 3 3 4 4
2 1 4 3 2 1 1 3 2 1 2 2 2 2 2 2 1 1 2 2 2 2 1 2 3 4 4 5 4 4 3 3 3 3 3 4 4 5
2 2 1 1 1 1 1 1 1 1 1 1 2 2 2 2 2 2 2 3 3 2 2 2 3 3 4 5 5 4 4 4 3 2 4 5 4 4
3 2 2 2 2 1 1 1 1 1 2 2 2 2 3 3 3 2 3 3 3 3 3 2 2 3 4 4 3 5 5 4 3 3 5 5 5 4
3 2 2 2 2 2 2 2 2 1 1 2 2 2 3 3 3 3 3 3 3 3 3 3 3 4 5 5 3 4 5 4 4 5 5 5 5 4
3 2 2 2 2 2 2 2 2 2 2 2 2 2 3 3 3 3 3 4 4 4 4 3 4 4 5 6 5 4 6 6 5 5 5 5 4 2
3 3 2 2 2 3 3 2 2 2 2 2 2 3 3 3 3 4 4 3 5 5 5 4 3 4 5 5 6 5 3 5 5 5 5 5 5 5
3 3 2 2 2 3 2 3 3 2 2 3 3 3 3 3 4 4 4 4 4 5 5 4 3 4 5 6 7 6 5 3 4 6 6 6 5 5
3 3 3 3 3 3 2 3 4 3 2 2 2 3 3 3 3 4 4 4 4 5 5 5 4 4 5 6 6 6 6 5 4 4 4 5 6 6
Wind_Direction
266 252 258 266 266 272 270 267 271 271 262 239 245 232 256 257 187 241 232 144 175 197 208 212 214 217 211 206 210 209 211 210 210 212 211 211 207 209
280 287 281 277 276 267 267 272 271 272 275 282 275 292 300 285 227 259 239 160 167 185 200 211 213 212 210 208 209 207 208 209 209 207 206 206 207 210
286 277 276 288 288 279 270 269 265 262 263 272 282 291 279 277 277 266 247 236 182 163 175 197 209 214 214 213 212 209 206 205 206 203 203 197 199 205
289 289 286 278 276 278 278 272 271 263 258 263 270 270 259 260 260 259 255 251 237 152 168 179 201 213 218 218 215 215 208 204 204 203 199 191 192 197
289 288 291 292 286 289 283 281 276 263 261 258 259 257 259 262 256 254 256 256 251 171 173 183 190 205 217 222 219 215 207 200 200 198 192 188 186 189
293 292 291 290 287 287 280 278 279 274 260 259 260 251 246 248 257 254 256 252 262 245 214 188 175 188 194 202 214 210 203 198 197 196 193 192 191 190
283 288 292 303 320 303 300 297 283 274 269 263 263 270 275 271 272 268 266 265 245 261 255 224 185 194 186 186 183 199 202 204 202 197 193 198 197 192
286 285 274 259 275 266 286 299 297 284 284 278 267 270 272 275 287 276 278 273 261 256 271 256 237 232 215 169 118 137 178 185 186 190 193 196 197 194
281 283 285 295 276 283 261 243 251 260 271 277 282 284 279 277 272 264 265 276 283 286 272 263 250 241 224 110 125 149 165 164 163 164 163 174 187 192
273 272 277 286 298 302 289 285 286 283 267 254 274 289 307 305 269 261 256 250 238 231 256 260 253 254 250 146 146 162 172 177 169 162 161 164 171 188
273 273 278 281 350 326 288 286 287 276 225 261 297 312 350 313 290 273 262 258 254 227 235 264 267 269 249 223 164 171 181 182 179 176 173 174 183 203
265 261 272 308 38 331 289 283 284 298 311 321 292 214 225 213 222 261 275 272 269 263 235 265 259 264 256 227 203 189 194 184 190 189 186 185 195 228
278 274 69 104 52 311 296 292 304 303 286 273 266 254 230 226 224 233 288 286 281 282 272 267 272 266 267 266 250 234 224 210 203 198 191 187 195 227
286 296 59 136 241 267 273 309 289 270 263 271 278 289 296 298 294 296 309 300 299 295 298 289 281 282 275 270 262 240 245 243 230 223 213 185 201 212
306 19 54 208 234 229 211 211 232 251 266 275 292 312 317 322 312 285 239 227 237 246 249 265 269 272 276 275 274 262 255 248 241 241 237 228 224 213
253 181 186 208 246 304 225 220 242 305 313 307 311 315 307 289 273 279 269 252 246 234 215 247 260 267 270 278 274 266 261 253 241 246 254 251 240 231
242 229 233 213 225 250 274 293 299 292 280 303 307 304 292 285 276 265 268 260 260 262 245 234 235 244 260 274 268 264 264 261 252 244 250 252 243 237
236 224 238 256 269 279 279 271 267 293 306 306 294 291 284 277 275 271 271 273 274 276 276 277 271 260 255 243 251 267 264 261 256 243 252 253 254 243
220 235 247 259 267 271 274 275 275 257 268 274 283 287 288 283 277 270 262 266 273 280 279 274 270 271 270 269 233 236 268 267 256 250 248 253 259 258
230 238 241 253 263 268 272 272 269 259 244 249 258 268 275 280 284 283 279 282 280 273 268 268 266 270 277 289 289 255 230 252 255 256 259 263 272 274
231 233 236 241 255 264 266 266 262 256 265 272 264 267 271 274 281 285 286 284 277 273 271 270 277 270 275 278 273 269 245 218 244 257 261 261 263 260
250 249 248 255 256 258 255 257 258 251 246 253 261 261 266 273 278 281 282 279 278 282 282 278 261 255 259 267 274 274 270 248 219 219 240 259 270 269
260 263 257 251 248 241 241 245 251 253 254 263 266 265 270 274 276 276 278 280 285 288 290 287 275 264 267 269 274 276 270 260 258 249 238 218 225 242